Sitka, AK

2:36 AM AKST on February 27, 2017 (GMT -0900)
Sitka Rocky Gutierrez

Weather History for PASI - October, 2012

Change the Weather History Date:

Wednesday, October 10, 2012

  Actual Average Record
Temperature  
Mean Temperature 48 °F -  
Max Temperature 50 °F 52 °F 61 °F (1980)
Min Temperature 46 °F 43 °F 30 °F (1997)
Degree Days  
Heating Degree Days 17    
Moisture  
Dew Point 46 °F    
Average Humidity 95    
Maximum Humidity 100    
Minimum Humidity 83    
Precipitation  
Precipitation 0.00 in - - ()
Sea Level Pressure  
Sea Level Pressure 30.02 in    
Wind  
Wind Speed 2 mph (South)    
Max Wind Speed 8 mph    
Max Gust Speed -    
Visibility 9 miles    
Events Rain    
Averages and records for this station are not official NWS values.
T = Trace of Precipitation, MM = Missing Value Source: NWS Daily Summary

Daily Weather History Graph

Daily Weather History Graph

Search for Another Location

Airport or City:

Trip Planner

Search our weather history database for the weather conditions in past years. The results will help you decide how hot, cold, wet, or windy it might be!

Date:

Astronomy

Oct. 10, 2012 Rise Set
Actual Time 7:25 AM AKDT 6:09 PM AKDT
Civil Twilight 6:47 AM AKDT 6:48 PM AKDT
Nautical Twilight 6:02 AM AKDT 7:32 PM AKDT
Astronomical Twilight 5:17 AM AKDT 8:17 PM AKDT
Moon 1:12 AM AKDT (10/10) 4:05 PM AKDT (10/10)
Length of Visible Light 12h 01m
Length of Day
10h 44m
Waning Crescent, 26% of the Moon is Illuminated
Oct 10
Waning Crescent
Oct 15
New
Oct 21
First Quarter
Oct 29
Full
Nov 6
Last Quarter

Hourly Weather History & Observations

Time (AKDT) Temp. Windchill Dew Point Humidity Pressure Visibility Wind Dir Wind Speed Gust Speed Precip Events Conditions
12:46 AM 48.2 °F - 48.2 °F 100% 30.07 in 10.0 mi Calm Calm - N/A   Overcast
12:53 AM 48.9 °F - 48.0 °F 97% 30.07 in 10.0 mi Calm Calm - N/A   Overcast
1:22 AM 48.2 °F - 48.2 °F 100% 30.06 in 10.0 mi WNW 3.5 mph - N/A   Overcast
1:39 AM 48.2 °F - 48.2 °F 100% 30.07 in 5.0 mi Calm Calm - 0.00 in   Overcast
1:53 AM 48.0 °F - 48.0 °F 100% 30.07 in 3.0 mi SSE 3.5 mph - 0.00 in Rain Light Rain
2:05 AM 48.2 °F - 48.2 °F 100% 30.07 in 6.0 mi SSE 5.8 mph - 0.00 in   Overcast
2:15 AM 48.2 °F - 48.2 °F 100% 30.07 in 5.0 mi SSE 3.5 mph - 0.00 in   Overcast
2:53 AM 48.0 °F - 48.0 °F 100% 30.07 in 3.0 mi SE 4.6 mph - 0.00 in Rain Light Rain
3:25 AM 48.2 °F - 48.2 °F 100% 30.07 in 10.0 mi Calm Calm - 0.00 in   Overcast
3:53 AM 46.9 °F - 46.0 °F 97% 30.07 in 10.0 mi Calm Calm - 0.00 in   Overcast
4:42 AM 48.2 °F - 46.4 °F 93% 30.07 in 10.0 mi Calm Calm - N/A   Overcast
4:53 AM 46.4 °F 44.3 °F 46.4 °F 100% 30.07 in 10.0 mi East 4.6 mph - N/A   Overcast
5:13 AM 46.4 °F 45.2 °F 46.4 °F 100% 30.07 in 10.0 mi ESE 3.5 mph - N/A   Overcast
5:53 AM 46.0 °F 43.1 °F 45.0 °F 96% 30.07 in 10.0 mi SE 5.8 mph - N/A   Mostly Cloudy
5:58 AM 46.4 °F 44.3 °F 44.6 °F 93% 30.07 in 10.0 mi SE 4.6 mph - N/A   Overcast
6:49 AM 46.4 °F 45.2 °F 44.6 °F 93% 30.07 in 10.0 mi SE 3.5 mph - N/A   Overcast
6:53 AM 46.9 °F - 45.0 °F 93% 30.07 in 10.0 mi SE 3.5 mph - N/A   Overcast
7:53 AM 46.9 °F - 46.0 °F 97% 30.07 in 9.0 mi Calm Calm - N/A   Overcast
8:53 AM 46.9 °F - 46.0 °F 97% 30.06 in 10.0 mi Calm Calm - N/A   Overcast
9:46 AM 48.2 °F - 46.4 °F 93% 30.05 in 10.0 mi Calm Calm - N/A   Mostly Cloudy
9:53 AM 48.9 °F - 46.0 °F 90% 30.04 in 10.0 mi Calm Calm - N/A   Scattered Clouds
10:02 AM 48.2 °F - 46.4 °F 93% 30.03 in 10.0 mi Calm Calm - N/A   Mostly Cloudy
10:53 AM 48.9 °F - 46.0 °F 90% 30.03 in 10.0 mi NW 5.8 mph - N/A   Scattered Clouds
11:34 AM 50.0 °F - 46.4 °F 87% 30.05 in 10.0 mi WSW 8.1 mph - N/A   Mostly Cloudy
11:53 AM 48.9 °F - 46.0 °F 90% 30.05 in 10.0 mi West 5.8 mph - N/A   Mostly Cloudy
12:53 PM 50.0 °F - 46.0 °F 86% 30.04 in 10.0 mi West 4.6 mph - N/A   Overcast
1:53 PM 50.0 °F - 45.0 °F 83% 30.03 in 10.0 mi West 4.6 mph - N/A   Overcast
2:53 PM 50.0 °F - 45.0 °F 83% 30.02 in 10.0 mi SW 5.8 mph - N/A   Overcast
3:38 PM 48.2 °F - 44.6 °F 87% 30.00 in 10.0 mi SW 6.9 mph - N/A   Overcast
3:53 PM 48.9 °F - 45.0 °F 86% 29.99 in 10.0 mi WSW 5.8 mph - N/A   Overcast
4:15 PM 48.2 °F - 44.6 °F 87% 29.99 in 10.0 mi SSW 3.5 mph - N/A   Overcast
4:53 PM 48.0 °F - 44.1 °F 86% 29.98 in 9.0 mi Calm Calm - N/A   Overcast
5:53 PM 48.0 °F - 45.0 °F 89% 29.96 in 10.0 mi Calm Calm - N/A   Overcast
6:53 PM 48.0 °F - 46.0 °F 93% 29.96 in 10.0 mi Calm Calm - N/A   Overcast
7:53 PM 46.9 °F - 46.0 °F 97% 29.95 in 10.0 mi Calm Calm - N/A   Overcast
8:04 PM 46.4 °F 45.2 °F 46.4 °F 100% 29.94 in 7.0 mi East 3.5 mph - N/A   Overcast
8:46 PM 46.4 °F - 46.4 °F 100% 29.93 in 10.0 mi Calm Calm - N/A   Overcast
8:53 PM 46.9 °F - 46.0 °F 97% 29.93 in 10.0 mi Calm Calm - N/A   Overcast
8:56 PM 46.4 °F - 46.4 °F 100% 29.93 in 10.0 mi Calm Calm - N/A   Overcast
9:03 PM 46.4 °F - 46.4 °F 100% 29.92 in 10.0 mi Calm Calm - N/A   Overcast
9:29 PM 46.4 °F - 46.4 °F 100% 29.92 in 10.0 mi Calm Calm - N/A   Overcast
9:53 PM 46.9 °F - 46.0 °F 97% 29.93 in 8.0 mi East 3.5 mph - N/A   Overcast
10:53 PM 46.9 °F - 46.0 °F 97% 29.90 in 10.0 mi Calm Calm - N/A   Overcast
11:53 PM 46.9 °F - 46.0 °F 97% 29.90 in 10.0 mi Calm Calm - N/A   Overcast